| time (UTC) | temp F | wind direction | speed MPH | gust MPH | rain 1hr in | rain 24hr in | rain mn in | humidity % | barometer mb |
| 20260507144820 | 57 | 266 | 0.0 | 6.0 | 0.00 | 0.00 | 0.00 | 69 | 1017.2 |
| 20260507144537 | 56 | 262 | 0.0 | 6.0 | 0.00 | 0.00 | 0.00 | 71 | 1017.4 |
| 20260507144336 | 56 | 242 | 2.0 | 6.0 | 0.00 | 0.00 | 0.00 | 70 | 1017.2 |
| 20260507143831 | 56 | 277 | 0.0 | 9.0 | 0.00 | 0.00 | 0.00 | 73 | 1017.3 |
| 20260507143348 | 55 | 253 | 1.0 | 9.0 | 0.00 | 0.00 | 0.00 | 72 | 1017.3 |
| 20260507143002 | 55 | 251 | 0.0 | 8.0 | 0.00 | 0.00 | 0.00 | 72 | 1017.5 |
| 20260507142828 | 55 | 247 | 1.0 | 8.0 | 0.00 | 0.00 | 0.00 | 73 | 1017.3 |
| 20260507142347 | 55 | 246 | 2.0 | 8.0 | 0.00 | 0.00 | 0.00 | 73 | 1017.4 |
| 20260507141846 | 54 | 278 | 1.0 | 6.0 | 0.00 | 0.00 | 0.00 | 75 | 1017.5 |
| 20260507141625 | 53 | 246 | 0.0 | 6.0 | 0.00 | 0.00 | 0.00 | 75 | 1017.6 |
| 20260507141335 | 54 | 269 | 2.0 | 6.0 | 0.00 | 0.00 | 0.00 | 76 | 1017.4 |
| 20260507140825 | 53 | 273 | 0.0 | 5.0 | 0.00 | 0.00 | 0.00 | 78 | 1017.4 |
| 20260507140329 | 53 | 243 | 1.0 | 5.0 | 0.00 | 0.00 | 0.00 | 80 | 1017.5 |
| 20260507140034 | 52 | 220 | 0.0 | 4.0 | 0.00 | 0.00 | 0.00 | 80 | 1017.8 |
| 20260507135824 | 52 | 252 | 0.0 | 2.0 | 0.00 | 0.00 | 0.00 | 81 | 1017.6 |
| 20260507135324 | 52 | 235 | 0.0 | 7.0 | 0.00 | 0.00 | 0.00 | 82 | 1017.7 |
| 20260507134846 | 51 | 251 | 0.0 | 3.0 | 0.00 | 0.00 | 0.00 | 83 | 1017.7 |
| 20260507134610 | 50 | 265 | 0.0 | 3.0 | 0.00 | 0.00 | 0.00 | 84 | 1017.9 |
| 20260507134319 | 51 | 232 | 0.0 | 4.0 | 0.00 | 0.00 | 0.00 | 85 | 1017.7 |
| 20260507133908 | 50 | 235 | 0.0 | 4.0 | 0.00 | 0.00 | 0.00 | 86 | 1017.8 |
| 20260507133345 | 50 | 234 | 0.0 | 3.0 | 0.00 | 0.00 | 0.00 | 86 | 1017.8 |
| 20260507133111 | 49 | 265 | 0.0 | 3.0 | 0.00 | 0.00 | 0.00 | 87 | 1018.1 |
| 20260507132825 | 49 | 238 | 0.0 | 4.0 | 0.00 | 0.00 | 0.00 | 87 | 1017.9 |
| 20260507132332 | 49 | 246 | 0.0 | 5.0 | 0.00 | 0.00 | 0.00 | 88 | 1017.8 |
| 20260507131832 | 49 | 269 | 1.0 | 4.0 | 0.00 | 0.00 | 0.00 | 89 | 1017.9 |
| 20260507131532 | 48 | 254 | 0.0 | 4.0 | 0.00 | 0.00 | 0.00 | 89 | 1018.1 |
| 20260507131328 | 48 | 243 | 0.0 | 3.0 | 0.00 | 0.00 | 0.00 | 89 | 1017.9 |
| 20260507130833 | 48 | 254 | 0.0 | 3.0 | 0.00 | 0.00 | 0.00 | 90 | 1017.9 |
| 20260507130352 | 47 | 204 | 0.0 | 3.0 | 0.00 | 0.00 | 0.00 | 90 | 1017.9 |
| 20260507130044 | 46 | 229 | 0.0 | 2.0 | 0.00 | 0.00 | 0.00 | 90 | 1018.2 |
| 20260507125828 | 47 | 228 | 0.0 | 2.0 | 0.00 | 0.00 | 0.00 | 90 | 1017.9 |
| 20260507125336 | 46 | 217 | 0.0 | 3.0 | 0.00 | 0.00 | 0.00 | 90 | 1017.9 |
| 20260507124839 | 46 | 213 | 0.0 | 3.0 | 0.00 | 0.00 | 0.00 | 91 | 1017.9 |
| 20260507124606 | 45 | 202 | 0.0 | 2.0 | 0.00 | 0.00 | 0.00 | 91 | 1018.1 |
| 20260507124359 | 46 | 239 | 0.0 | 2.0 | 0.00 | 0.00 | 0.00 | 91 | 1017.9 |
| 20260507123841 | 45 | 258 | 0.0 | 1.0 | 0.00 | 0.00 | 0.00 | 91 | 1017.9 |
| 20260507123418 | 45 | 268 | 0.0 | 0.0 | 0.00 | 0.00 | 0.00 | 91 | 1017.8 |
| 20260507123038 | 44 | 269 | 0.0 | 0.0 | 0.00 | 0.00 | 0.00 | 91 | 1018.1 |
| 20260507122834 | 44 | 269 | 0.0 | 0.0 | 0.00 | 0.00 | 0.00 | 91 | 1017.7 |
| 20260507122345 | 44 | 275 | 0.0 | 1.0 | 0.00 | 0.00 | 0.00 | 91 | 1017.8 |
| 20260507121825 | 44 | 275 | 0.0 | 1.0 | 0.00 | 0.00 | 0.00 | 91 | 1017.6 |
| 20260507121520 | 43 | 280 | 0.0 | 1.0 | 0.00 | 0.00 | 0.00 | 91 | 1017.9 |
| 20260507121333 | 43 | 280 | 0.0 | 1.0 | 0.00 | 0.00 | 0.00 | 91 | 1017.7 |
| 20260507120852 | 43 | 280 | 0.0 | 1.0 | 0.00 | 0.00 | 0.00 | 91 | 1017.7 |
| 20260507120321 | 42 | 280 | 0.0 | 0.0 | 0.00 | 0.00 | 0.00 | 91 | 1017.7 |
| 20260507120041 | 42 | 280 | 0.0 | 0.0 | 0.00 | 0.00 | 0.00 | 91 | 1018.1 |
| 20260507115843 | 42 | 280 | 0.0 | 0.0 | 0.00 | 0.00 | 0.00 | 91 | 1017.7 |
| 20260507115313 | 42 | 280 | 0.0 | 0.0 | 0.00 | 0.00 | 0.00 | 90 | 1017.6 |
| 20260507114842 | 42 | 299 | 0.0 | 0.0 | 0.00 | 0.00 | 0.00 | 90 | 1017.6 |
| 20260507114605 | 41 | 299 | 0.0 | 0.0 | 0.00 | 0.00 | 0.00 | 90 | 1017.9 |
| 20260507114347 | 42 | 299 | 0.0 | 0.0 | 0.00 | 0.00 | 0.00 | 90 | 1017.6 |
| 20260507113818 | 42 | 299 | 0.0 | 0.0 | 0.00 | 0.00 | 0.00 | 90 | 1017.6 |
| 20260507113342 | 42 | 299 | 0.0 | 0.0 | 0.00 | 0.00 | 0.00 | 90 | 1017.8 |
| 20260507113006 | 41 | 299 | 0.0 | 0.0 | 0.00 | 0.00 | 0.00 | 90 | 1018.0 |
| 20260507112819 | 42 | 299 | 0.0 | 0.0 | 0.00 | 0.00 | 0.00 | 90 | 1017.7 |
| 20260507112334 | 42 | 299 | 0.0 | 0.0 | 0.00 | 0.00 | 0.00 | 90 | 1017.8 |
| 20260507111819 | 42 | 299 | 0.0 | 0.0 | 0.00 | 0.00 | 0.00 | 90 | 1017.8 |
| 20260507111555 | 41 | 299 | 0.0 | 0.0 | 0.00 | 0.00 | 0.00 | 90 | 1018.0 |
| 20260507111343 | 42 | 299 | 0.0 | 0.0 | 0.00 | 0.00 | 0.00 | 90 | 1017.7 |
| 20260507110848 | 42 | 299 | 0.0 | 0.0 | 0.00 | 0.00 | 0.00 | 89 | 1017.6 |
| 20260507110319 | 42 | 299 | 0.0 | 0.0 | 0.00 | 0.00 | 0.00 | 89 | 1017.6 |
| 20260507110105 | 42 | 299 | 0.0 | 0.0 | 0.00 | 0.00 | 0.00 | 89 | 1017.9 |
| 20260507105817 | 42 | 299 | 0.0 | 0.0 | 0.00 | 0.01 | 0.00 | 90 | 1017.6 |
| 20260507105321 | 42 | 301 | 0.0 | 0.0 | 0.00 | 0.01 | 0.00 | 90 | 1017.6 |
| 20260507104823 | 42 | 302 | 0.0 | 0.0 | 0.00 | 0.01 | 0.00 | 90 | 1017.6 |
| 20260507104536 | 42 | 302 | 0.0 | 0.0 | 0.00 | 0.01 | 0.00 | 90 | 1017.8 |
| 20260507104325 | 42 | 302 | 0.0 | 0.0 | 0.00 | 0.01 | 0.00 | 90 | 1017.6 |
| 20260507103857 | 42 | 302 | 0.0 | 0.0 | 0.00 | 0.01 | 0.00 | 89 | 1017.6 |
| 20260507103346 | 42 | 302 | 0.0 | 0.0 | 0.00 | 0.01 | 0.00 | 89 | 1017.6 |
| 20260507103111 | 41 | 302 | 0.0 | 0.0 | 0.00 | 0.01 | 0.00 | 89 | 1017.9 |
| 20260507102837 | 42 | 302 | 0.0 | 0.0 | 0.00 | 0.01 | 0.00 | 88 | 1017.6 |
| 20260507102328 | 42 | 302 | 0.0 | 0.0 | 0.00 | 0.01 | 0.00 | 88 | 1017.6 |
| 20260507101829 | 42 | 302 | 0.0 | 0.0 | 0.00 | 0.01 | 0.00 | 89 | 1017.6 |
| 20260507101520 | 42 | 302 | 0.0 | 0.0 | 0.00 | 0.01 | 0.00 | 89 | 1017.9 |
| 20260507101331 | 42 | 302 | 0.0 | 0.0 | 0.00 | 0.01 | 0.00 | 89 | 1017.7 |
| 20260507100835 | 42 | 302 | 0.0 | 0.0 | 0.00 | 0.01 | 0.00 | 88 | 1017.8 |
| 20260507100326 | 42 | 302 | 0.0 | 0.0 | 0.00 | 0.01 | 0.00 | 88 | 1017.8 |
| 20260507100052 | 42 | 302 | 0.0 | 0.0 | 0.00 | 0.01 | 0.00 | 88 | 1018.0 |
| 20260507095846 | 42 | 302 | 0.0 | 0.0 | 0.00 | 0.01 | 0.00 | 88 | 1017.8 |
| 20260507095323 | 43 | 302 | 0.0 | 0.0 | 0.00 | 0.01 | 0.00 | 88 | 1017.9 |
| 20260507094821 | 43 | 302 | 0.0 | 0.0 | 0.00 | 0.01 | 0.00 | 88 | 1018.0 |
| 20260507094534 | 42 | 302 | 0.0 | 0.0 | 0.00 | 0.01 | 0.00 | 87 | 1018.1 |
| 20260507094327 | 43 | 302 | 0.0 | 0.0 | 0.00 | 0.01 | 0.00 | 87 | 1018.0 |
| 20260507093831 | 43 | 302 | 0.0 | 0.0 | 0.00 | 0.01 | 0.00 | 87 | 1018.0 |
| 20260507093323 | 43 | 302 | 0.0 | 0.0 | 0.00 | 0.01 | 0.00 | 87 | 1018.0 |
| 20260507093009 | 43 | 302 | 0.0 | 0.0 | 0.00 | 0.01 | 0.00 | 87 | 1018.1 |
| 20260507092824 | 44 | 302 | 0.0 | 0.0 | 0.00 | 0.01 | 0.00 | 87 | 1018.0 |
| 20260507092338 | 44 | 302 | 0.0 | 0.0 | 0.00 | 0.01 | 0.00 | 87 | 1018.1 |
| 20260507091838 | 44 | 302 | 0.0 | 0.0 | 0.00 | 0.01 | 0.00 | 87 | 1018.1 |
| 20260507091521 | 44 | 302 | 0.0 | 0.0 | 0.00 | 0.01 | 0.00 | 87 | 1018.3 |
| 20260507091332 | 44 | 302 | 0.0 | 0.0 | 0.00 | 0.01 | 0.00 | 87 | 1018.2 |
| 20260507090837 | 44 | 302 | 0.0 | 0.0 | 0.00 | 0.01 | 0.00 | 87 | 1018.2 |
| 20260507090340 | 44 | 302 | 0.0 | 0.0 | 0.00 | 0.01 | 0.00 | 87 | 1018.4 |
| 20260507090114 | 44 | 302 | 0.0 | 0.0 | 0.00 | 0.01 | 0.00 | 87 | 1018.5 |
| 20260507085830 | 45 | 302 | 0.0 | 0.0 | 0.00 | 0.03 | 0.00 | 87 | 1018.3 |
| 20260507085344 | 45 | 302 | 0.0 | 1.0 | 0.00 | 0.03 | 0.00 | 87 | 1018.3 |
| 20260507084835 | 45 | 302 | 0.0 | 0.0 | 0.00 | 0.03 | 0.00 | 87 | 1018.4 |
| 20260507084516 | 44 | 302 | 0.0 | 0.0 | 0.00 | 0.03 | 0.00 | 87 | 1018.6 |
| 20260507084330 | 45 | 304 | 0.0 | 0.0 | 0.00 | 0.03 | 0.00 | 87 | 1018.4 |
| 20260507083837 | 45 | 304 | 0.0 | 0.0 | 0.00 | 0.03 | 0.00 | 87 | 1018.4 |
| 20260507083321 | 45 | 304 | 0.0 | 0.0 | 0.00 | 0.03 | 0.00 | 87 | 1018.4 |
| 20260507083040 | 44 | 305 | 0.0 | 0.0 | 0.00 | 0.03 | 0.00 | 87 | 1018.6 |
| 20260507082820 | 45 | 306 | 0.0 | 0.0 | 0.00 | 0.03 | 0.00 | 86 | 1018.5 |
| 20260507082345 | 45 | 306 | 0.0 | 0.0 | 0.00 | 0.03 | 0.00 | 85 | 1018.5 |
| 20260507081845 | 45 | 328 | 0.0 | 0.0 | 0.00 | 0.03 | 0.00 | 85 | 1018.7 |
| 20260507081615 | 45 | 333 | 0.0 | 0.0 | 0.00 | 0.03 | 0.00 | 85 | 1018.8 |
| 20260507081333 | 45 | 333 | 0.0 | 0.0 | 0.00 | 0.03 | 0.00 | 85 | 1018.7 |
| 20260507080904 | 46 | 334 | 0.0 | 0.0 | 0.00 | 0.03 | 0.00 | 85 | 1018.7 |
| 20260507080337 | 46 | 335 | 0.0 | 0.0 | 0.00 | 0.03 | 0.00 | 85 | 1018.6 |
| 20260507080022 | 45 | 340 | 0.0 | 0.0 | 0.00 | 0.03 | 0.00 | 85 | 1018.8 |
| 20260507075821 | 46 | 341 | 0.0 | 0.0 | 0.00 | 0.03 | 0.00 | 85 | 1018.6 |
| 20260507075338 | 46 | 342 | 0.0 | 0.0 | 0.00 | 0.03 | 0.00 | 85 | 1018.7 |
| 20260507074848 | 46 | 342 | 0.0 | 0.0 | 0.00 | 0.03 | 0.00 | 84 | 1018.7 |
| 20260507074606 | 46 | 342 | 0.0 | 0.0 | 0.00 | 0.03 | 0.00 | 84 | 1018.8 |
| 20260507074351 | 47 | 342 | 0.0 | 0.0 | 0.00 | 0.03 | 0.00 | 84 | 1018.7 |
| 20260507073818 | 47 | 342 | 0.0 | 0.0 | 0.00 | 0.03 | 0.00 | 83 | 1018.6 |
| 20260507073319 | 47 | 342 | 0.0 | 0.0 | 0.00 | 0.03 | 0.00 | 84 | 1018.6 |
| 20260507073031 | 47 | 342 | 0.0 | 0.0 | 0.00 | 0.03 | 0.00 | 84 | 1018.8 |
| 20260507072839 | 47 | 342 | 0.0 | 0.0 | 0.00 | 0.03 | 0.00 | 84 | 1018.7 |
| 20260507072343 | 48 | 342 | 0.0 | 0.0 | 0.00 | 0.03 | 0.00 | 83 | 1018.7 |
| 20260507071825 | 48 | 342 | 0.0 | 0.0 | 0.00 | 0.03 | 0.00 | 84 | 1018.8 |
| 20260507071529 | 48 | 342 | 0.0 | 0.0 | 0.00 | 0.03 | 0.00 | 84 | 1018.9 |
| 20260507071326 | 48 | 342 | 0.0 | 0.0 | 0.00 | 0.03 | 0.00 | 84 | 1018.8 |
| 20260507070830 | 48 | 342 | 0.0 | 0.0 | 0.00 | 0.03 | 0.00 | 84 | 1018.9 |
| 20260507070340 | 48 | 342 | 0.0 | 0.0 | 0.00 | 0.03 | 0.00 | 84 | 1018.9 |
| 20260507070100 | 48 | 342 | 0.0 | 0.0 | 0.00 | 0.03 | 0.00 | 85 | 1019.1 |
| 20260507065841 | 48 | 342 | 0.0 | 0.0 | 0.00 | 0.07 | 0.00 | 85 | 1018.9 |
| 20260507065408 | 48 | 342 | 0.0 | 0.0 | 0.00 | 0.07 | 0.00 | 85 | 1019.0 |
| 20260507064845 | 48 | 342 | 0.0 | 0.0 | 0.00 | 0.07 | 0.00 | 85 | 1019.2 |
| 20260507064504 | 47 | 342 | 0.0 | 0.0 | 0.00 | 0.07 | 0.00 | 85 | 1019.3 |
| 20260507064405 | 48 | 342 | 0.0 | 0.0 | 0.00 | 0.07 | 0.00 | 85 | 1019.1 |
| 20260507063842 | 47 | 342 | 0.0 | 0.0 | 0.00 | 0.07 | 0.00 | 85 | 1019.1 |
| 20260507063356 | 47 | 342 | 0.0 | 0.0 | 0.00 | 0.07 | 0.00 | 85 | 1019.2 |
| 20260507063047 | 47 | 342 | 0.0 | 0.0 | 0.00 | 0.07 | 0.00 | 85 | 1019.5 |
| 20260507062847 | 47 | 342 | 0.0 | 0.0 | 0.00 | 0.07 | 0.00 | 85 | 1019.2 |
| 20260507062330 | 47 | 342 | 0.0 | 0.0 | 0.00 | 0.07 | 0.00 | 84 | 1019.2 |
| 20260507061829 | 47 | 342 | 0.0 | 0.0 | 0.00 | 0.07 | 0.00 | 84 | 1019.2 |
| 20260507061544 | 47 | 342 | 0.0 | 0.0 | 0.00 | 0.07 | 0.00 | 84 | 1019.4 |
| 20260507061352 | 47 | 342 | 0.0 | 0.0 | 0.00 | 0.07 | 0.00 | 83 | 1019.2 |
| 20260507060836 | 47 | 342 | 0.0 | 0.0 | 0.00 | 0.07 | 0.00 | 83 | 1019.2 |
| 20260507060338 | 48 | 342 | 0.0 | 0.0 | 0.00 | 0.07 | 0.00 | 83 | 1019.2 |
| 20260507060039 | 47 | 342 | 0.0 | 0.0 | 0.00 | 0.08 | 0.00 | 83 | 1019.4 |
| 20260507055831 | 48 | 342 | 0.0 | 0.0 | 0.00 | 0.08 | 0.00 | 83 | 1019.2 |
| 20260507055328 | 48 | 342 | 0.0 | 0.0 | 0.00 | 0.08 | 0.00 | 84 | 1019.3 |
| 20260507054823 | 48 | 342 | 0.0 | 0.0 | 0.00 | 0.08 | 0.00 | 84 | 1019.2 |
| 20260507054503 | 48 | 342 | 0.0 | 0.0 | 0.00 | 0.08 | 0.00 | 84 | 1019.4 |
| 20260507054337 | 48 | 342 | 0.0 | 0.0 | 0.00 | 0.08 | 0.00 | 84 | 1019.1 |
| 20260507053924 | 48 | 342 | 0.0 | 0.0 | 0.00 | 0.08 | 0.00 | 84 | 1019.0 |
| 20260507053330 | 48 | 342 | 0.0 | 0.0 | 0.00 | 0.08 | 0.00 | 84 | 1019.0 |
| 20260507052857 | 48 | 342 | 0.0 | 0.0 | 0.00 | 0.08 | 0.00 | 84 | 1019.2 |
| 20260507052340 | 48 | 342 | 0.0 | 0.0 | 0.00 | 0.08 | 0.00 | 84 | 1019.3 |
| 20260507051838 | 48 | 342 | 0.0 | 0.0 | 0.00 | 0.08 | 0.00 | 84 | 1019.2 |
| 20260507051600 | 47 | 342 | 0.0 | 0.0 | 0.00 | 0.08 | 0.00 | 83 | 1019.3 |
| 20260507051344 | 48 | 342 | 0.0 | 0.0 | 0.00 | 0.08 | 0.00 | 83 | 1019.1 |
| 20260507050838 | 48 | 342 | 0.0 | 0.0 | 0.00 | 0.08 | 0.00 | 83 | 1019.1 |
| 20260507050338 | 48 | 342 | 0.0 | 0.0 | 0.00 | 0.08 | 0.00 | 83 | 1019.2 |
| 20260507050035 | 47 | 342 | 0.0 | 0.0 | 0.00 | 0.08 | 0.08 | 83 | 1019.5 |
| 20260507045834 | 48 | 342 | 0.0 | 0.0 | 0.00 | 0.08 | 0.08 | 83 | 1019.3 |
| 20260507045329 | 48 | 342 | 0.0 | 0.0 | 0.00 | 0.08 | 0.08 | 83 | 1019.2 |
| 20260507044844 | 48 | 342 | 0.0 | 0.0 | 0.00 | 0.08 | 0.08 | 83 | 1019.3 |
| 20260507044537 | 47 | 342 | 0.0 | 0.0 | 0.00 | 0.08 | 0.08 | 83 | 1019.5 |
| 20260507044334 | 48 | 342 | 0.0 | 0.0 | 0.00 | 0.08 | 0.08 | 83 | 1019.2 |
| 20260507043856 | 48 | 342 | 0.0 | 0.0 | 0.00 | 0.08 | 0.08 | 83 | 1019.2 |
| 20260507043342 | 48 | 342 | 0.0 | 0.0 | 0.00 | 0.08 | 0.08 | 83 | 1019.2 |
| 20260507043102 | 47 | 342 | 0.0 | 0.0 | 0.00 | 0.08 | 0.08 | 83 | 1019.4 |
| 20260507042820 | 47 | 342 | 0.0 | 0.0 | 0.00 | 0.08 | 0.08 | 83 | 1019.2 |
| 20260507042325 | 47 | 342 | 0.0 | 0.0 | 0.00 | 0.08 | 0.08 | 83 | 1019.1 |
| 20260507041831 | 47 | 342 | 0.0 | 0.0 | 0.00 | 0.08 | 0.08 | 83 | 1019.1 |
| 20260507041554 | 47 | 342 | 0.0 | 0.0 | 0.00 | 0.08 | 0.08 | 83 | 1019.2 |
| 20260507041333 | 47 | 342 | 0.0 | 0.0 | 0.00 | 0.08 | 0.08 | 83 | 1018.9 |
| 20260507040855 | 47 | 342 | 0.0 | 0.0 | 0.00 | 0.08 | 0.08 | 83 | 1019.0 |
| 20260507040325 | 47 | 342 | 0.0 | 0.0 | 0.00 | 0.08 | 0.08 | 81 | 1019.1 |
| 20260507040057 | 46 | 344 | 0.0 | 0.0 | 0.00 | 0.08 | 0.08 | 80 | 1019.3 |
| 20260507035823 | 46 | 344 | 0.0 | 0.0 | 0.00 | 0.08 | 0.08 | 80 | 1019.1 |
| 20260507035319 | 47 | 344 | 0.0 | 0.0 | 0.00 | 0.08 | 0.08 | 80 | 1019.1 |
| 20260507034855 | 47 | 344 | 0.0 | 0.0 | 0.00 | 0.08 | 0.08 | 79 | 1019.1 |
| 20260507034550 | 46 | 344 | 0.0 | 0.0 | 0.00 | 0.08 | 0.08 | 79 | 1019.4 |
| 20260507034344 | 47 | 344 | 0.0 | 0.0 | 0.00 | 0.08 | 0.08 | 79 | 1019.2 |
| 20260507033852 | 47 | 344 | 0.0 | 0.0 | 0.00 | 0.08 | 0.08 | 77 | 1019.2 |
| 20260507033356 | 47 | 344 | 0.0 | 0.0 | 0.00 | 0.08 | 0.08 | 76 | 1019.2 |
| 20260507033050 | 47 | 344 | 0.0 | 0.0 | 0.00 | 0.08 | 0.08 | 76 | 1019.4 |
| 20260507032835 | 47 | 344 | 0.0 | 0.0 | 0.00 | 0.08 | 0.08 | 76 | 1019.3 |
| 20260507032359 | 48 | 344 | 0.0 | 0.0 | 0.00 | 0.08 | 0.08 | 74 | 1019.3 |
| 20260507031858 | 48 | 344 | 0.0 | 0.0 | 0.00 | 0.08 | 0.08 | 73 | 1019.2 |
| 20260507031540 | 48 | 344 | 0.0 | 0.0 | 0.00 | 0.08 | 0.08 | 73 | 1019.4 |
| 20260507031332 | 48 | 344 | 0.0 | 0.0 | 0.00 | 0.08 | 0.08 | 74 | 1019.1 |
| 20260507030838 | 49 | 344 | 0.0 | 0.0 | 0.00 | 0.08 | 0.08 | 72 | 1019.1 |
| 20260507030342 | 49 | 344 | 0.0 | 0.0 | 0.00 | 0.08 | 0.08 | 70 | 1019.0 |
| 20260507030105 | 49 | 344 | 0.0 | 0.0 | 0.00 | 0.08 | 0.08 | 69 | 1019.2 |
| 20260507025832 | 50 | 344 | 0.0 | 0.0 | 0.00 | 0.08 | 0.08 | 68 | 1019.0 |
| 20260507025319 | 50 | 344 | 0.0 | 0.0 | 0.00 | 0.08 | 0.08 | 67 | 1018.9 |
| 20260507024844 | 51 | 344 | 0.0 | 0.0 | 0.00 | 0.08 | 0.08 | 67 | 1018.9 |
| 20260507024607 | 51 | 344 | 0.0 | 0.0 | 0.00 | 0.08 | 0.08 | 66 | 1019.2 |
| 20260507024322 | 51 | 344 | 0.0 | 0.0 | 0.00 | 0.08 | 0.08 | 66 | 1018.9 |
| 20260507023830 | 52 | 344 | 0.0 | 0.0 | 0.00 | 0.08 | 0.08 | 65 | 1018.9 |
| 20260507023335 | 52 | 344 | 0.0 | 0.0 | 0.00 | 0.08 | 0.08 | 64 | 1018.9 |
| 20260507023046 | 52 | 344 | 0.0 | 0.0 | 0.00 | 0.08 | 0.08 | 64 | 1019.0 |
| 20260507022831 | 53 | 344 | 0.0 | 0.0 | 0.00 | 0.08 | 0.08 | 63 | 1018.8 |
| 20260507022322 | 53 | 344 | 0.0 | 0.0 | 0.00 | 0.08 | 0.08 | 64 | 1018.7 |
| 20260507021822 | 54 | 344 | 0.0 | 0.0 | 0.00 | 0.08 | 0.08 | 63 | 1018.6 |
| 20260507021518 | 53 | 344 | 0.0 | 0.0 | 0.00 | 0.08 | 0.08 | 63 | 1018.8 |
| 20260507021332 | 54 | 344 | 0.0 | 0.0 | 0.00 | 0.08 | 0.08 | 63 | 1018.7 |
| 20260507020820 | 54 | 344 | 0.0 | 0.0 | 0.00 | 0.08 | 0.08 | 62 | 1018.6 |
| 20260507020318 | 54 | 344 | 0.0 | 0.0 | 0.00 | 0.08 | 0.08 | 61 | 1018.6 |
| 20260507020038 | 54 | 344 | 0.0 | 0.0 | 0.00 | 0.08 | 0.08 | 60 | 1018.8 |
| 20260507015841 | 54 | 344 | 0.0 | 0.0 | 0.00 | 0.08 | 0.08 | 59 | 1018.6 |
| 20260507015320 | 54 | 344 | 0.0 | 0.0 | 0.00 | 0.08 | 0.08 | 59 | 1018.5 |
| 20260507014821 | 55 | 344 | 0.0 | 0.0 | 0.00 | 0.08 | 0.08 | 59 | 1018.4 |
| 20260507014601 | 55 | 344 | 0.0 | 0.0 | 0.00 | 0.08 | 0.08 | 60 | 1018.6 |
| 20260507014451 | 55 | 344 | 0.0 | 0.0 | 0.00 | 0.08 | 0.08 | 61 | 1018.4 |
| 20260507013824 | 56 | 342 | 0.0 | 0.0 | 0.00 | 0.08 | 0.08 | 60 | 1018.2 |
| 20260507013324 | 56 | 342 | 0.0 | 0.0 | 0.00 | 0.08 | 0.08 | 59 | 1018.2 |
| 20260507013115 | 55 | 342 | 0.0 | 0.0 | 0.00 | 0.08 | 0.08 | 58 | 1018.4 |
| 20260507012843 | 56 | 342 | 0.0 | 0.0 | 0.00 | 0.08 | 0.08 | 57 | 1018.1 |
| 20260507012337 | 56 | 342 | 0.0 | 0.0 | 0.00 | 0.08 | 0.08 | 56 | 1018.0 |
| 20260507011825 | 57 | 342 | 0.0 | 0.0 | 0.00 | 0.08 | 0.08 | 54 | 1018.1 |
| 20260507011603 | 56 | 342 | 0.0 | 0.0 | 0.00 | 0.08 | 0.08 | 54 | 1018.3 |
| 20260507011320 | 57 | 342 | 0.0 | 0.0 | 0.00 | 0.08 | 0.08 | 54 | 1018.0 |
| 20260507010822 | 57 | 342 | 0.0 | 0.0 | 0.00 | 0.08 | 0.08 | 51 | 1018.0 |
| 20260507010348 | 57 | 342 | 0.0 | 0.0 | 0.00 | 0.08 | 0.08 | 50 | 1017.9 |
| 20260507010002 | 57 | 342 | 0.0 | 0.0 | 0.00 | 0.10 | 0.08 | 49 | 1018.2 |
| 20260507005835 | 57 | 342 | 0.0 | 0.0 | 0.00 | 0.10 | 0.08 | 49 | 1017.9 |
| 20260507005334 | 57 | 338 | 0.0 | 0.0 | 0.00 | 0.10 | 0.08 | 50 | 1018.0 |
| 20260507004831 | 57 | 336 | 0.0 | 0.0 | 0.00 | 0.10 | 0.08 | 49 | 1017.9 |
| 20260507004534 | 57 | 337 | 0.0 | 0.0 | 0.00 | 0.10 | 0.08 | 49 | 1018.2 |
| 20260507004329 | 58 | 340 | 0.0 | 0.0 | 0.00 | 0.10 | 0.08 | 50 | 1017.9 |
| 20260507003832 | 58 | 340 | 0.0 | 0.0 | 0.00 | 0.10 | 0.08 | 50 | 1017.8 |
| 20260507003322 | 58 | 340 | 0.0 | 0.0 | 0.00 | 0.10 | 0.08 | 49 | 1017.7 |
| 20260507003111 | 57 | 340 | 0.0 | 0.0 | 0.00 | 0.10 | 0.08 | 50 | 1018.1 |
| 20260507002819 | 58 | 338 | 0.0 | 0.0 | 0.00 | 0.10 | 0.08 | 49 | 1017.7 |
| 20260507002323 | 58 | 338 | 0.0 | 0.0 | 0.00 | 0.10 | 0.08 | 50 | 1017.6 |
| 20260507001848 | 58 | 350 | 0.0 | 0.0 | 0.00 | 0.10 | 0.08 | 48 | 1017.6 |
| 20260507001523 | 58 | 5 | 0.0 | 0.0 | 0.00 | 0.10 | 0.08 | 49 | 1017.9 |
| 20260507001332 | 58 | 318 | 0.0 | 0.0 | 0.00 | 0.10 | 0.08 | 49 | 1017.6 |
| 20260507000833 | 58 | 299 | 0.0 | 1.0 | 0.00 | 0.10 | 0.08 | 48 | 1017.7 |
| 20260507000347 | 58 | 279 | 0.0 | 1.0 | 0.00 | 0.10 | 0.08 | 49 | 1017.9 |
| 20260507000026 | 58 | 279 | 0.0 | 0.0 | 0.00 | 0.10 | 0.08 | 50 | 1018.1 |
| 20260506235829 | 58 | 40 | 0.0 | 0.0 | 0.00 | 0.10 | 0.08 | 51 | 1017.9 |
| 20260506235341 | 59 | 349 | 0.0 | 0.0 | 0.00 | 0.10 | 0.08 | 51 | 1017.9 |
| 20260506234836 | 59 | 349 | 0.0 | 0.0 | 0.00 | 0.10 | 0.08 | 50 | 1017.9 |
| 20260506234521 | 58 | 349 | 0.0 | 0.0 | 0.00 | 0.10 | 0.08 | 50 | 1018.0 |
| 20260506234428 | 59 | 349 | 0.0 | 0.0 | 0.00 | 0.10 | 0.08 | 49 | 1017.8 |
| 20260506233842 | 59 | 336 | 0.0 | 0.0 | 0.00 | 0.10 | 0.08 | 48 | 1017.7 |
| 20260506233346 | 59 | 336 | 0.0 | 0.0 | 0.00 | 0.10 | 0.08 | 49 | 1017.7 |
| 20260506233003 | 58 | 28 | 0.0 | 1.0 | 0.00 | 0.10 | 0.08 | 49 | 1017.9 |
| 20260506232833 | 59 | 340 | 0.0 | 1.0 | 0.00 | 0.10 | 0.08 | 49 | 1017.6 |
| 20260506232327 | 59 | 336 | 0.0 | 1.0 | 0.00 | 0.10 | 0.08 | 49 | 1017.8 |
| 20260506231834 | 59 | 258 | 0.0 | 1.0 | 0.00 | 0.10 | 0.08 | 50 | 1017.8 |
| 20260506231518 | 58 | 34 | 0.0 | 1.0 | 0.00 | 0.10 | 0.08 | 50 | 1018.0 |
| 20260506231332 | 59 | 34 | 0.0 | 1.0 | 0.00 | 0.10 | 0.08 | 51 | 1017.7 |
| 20260506230833 | 59 | 298 | 0.0 | 1.0 | 0.00 | 0.10 | 0.08 | 49 | 1017.6 |
| 20260506230355 | 59 | 360 | 0.0 | 1.0 | 0.00 | 0.10 | 0.08 | 49 | 1017.6 |
| 20260506230026 | 59 | 26 | 0.0 | 0.0 | 0.00 | 0.10 | 0.08 | 48 | 1018.0 |
| 20260506225850 | 59 | 325 | 0.0 | 1.0 | 0.00 | 0.10 | 0.08 | 50 | 1017.8 |
| 20260506225333 | 59 | 355 | 0.0 | 1.0 | 0.00 | 0.10 | 0.08 | 50 | 1017.8 |
| 20260506224835 | 59 | 5 | 0.0 | 2.0 | 0.00 | 0.10 | 0.08 | 49 | 1017.8 |
| 20260506224546 | 59 | 296 | 0.0 | 2.0 | 0.00 | 0.10 | 0.08 | 48 | 1018.0 |
| 20260506224342 | 60 | 323 | 0.0 | 2.0 | 0.00 | 0.10 | 0.08 | 49 | 1017.7 |
| 20260506223824 | 60 | 58 | 0.0 | 2.0 | 0.00 | 0.10 | 0.08 | 48 | 1017.6 |
| 20260506223341 | 60 | 315 | 0.0 | 2.0 | 0.00 | 0.10 | 0.08 | 50 | 1017.5 |
| 20260506223127 | 59 | 327 | 0.0 | 1.0 | 0.00 | 0.10 | 0.08 | 49 | 1017.8 |
| 20260506222902 | 60 | 10 | 0.0 | 1.0 | 0.00 | 0.10 | 0.08 | 51 | 1017.5 |
| 20260506222344 | 59 | 5 | 0.0 | 1.0 | 0.00 | 0.10 | 0.08 | 53 | 1017.5 |
| 20260506221906 | 59 | 355 | 0.0 | 1.0 | 0.00 | 0.10 | 0.08 | 51 | 1017.6 |
| 20260506221602 | 58 | 52 | 0.0 | 1.0 | 0.00 | 0.10 | 0.08 | 52 | 1017.8 |
| 20260506221343 | 59 | 360 | 0.0 | 1.0 | 0.00 | 0.10 | 0.08 | 52 | 1017.6 |
| 20260506220838 | 58 | 32 | 0.0 | 1.0 | 0.00 | 0.10 | 0.08 | 53 | 1017.5 |
| 20260506220321 | 58 | 333 | 0.0 | 2.0 | 0.00 | 0.10 | 0.08 | 51 | 1017.5 |
| 20260506220009 | 58 | 348 | 0.0 | 2.0 | 0.00 | 0.10 | 0.08 | 52 | 1017.8 |
| 20260506215832 | 58 | 16 | 0.0 | 2.0 | 0.00 | 0.10 | 0.08 | 52 | 1017.5 |
| 20260506215329 | 58 | 328 | 0.0 | 1.0 | 0.00 | 0.10 | 0.08 | 52 | 1017.6 |
| 20260506214836 | 59 | 11 | 0.0 | 0.0 | 0.00 | 0.10 | 0.08 | 52 | 1017.5 |
| 20260506214603 | 58 | 47 | 0.0 | 0.0 | 0.00 | 0.10 | 0.08 | 52 | 1017.9 |
| 20260506214347 | 59 | 78 | 0.0 | 0.0 | 0.00 | 0.10 | 0.08 | 52 | 1017.8 |
| 20260506213819 | 59 | 46 | 0.0 | 0.0 | 0.00 | 0.10 | 0.08 | 53 | 1017.7 |
| 20260506213339 | 59 | 349 | 0.0 | 0.0 | 0.00 | 0.10 | 0.08 | 52 | 1017.9 |
| 20260506213042 | 58 | 50 | 0.0 | 0.0 | 0.00 | 0.10 | 0.08 | 52 | 1018.1 |
| 20260506212825 | 59 | 14 | 0.0 | 0.0 | 0.00 | 0.10 | 0.08 | 52 | 1017.9 |
| 20260506212330 | 59 | 315 | 0.0 | 1.0 | 0.00 | 0.10 | 0.08 | 51 | 1017.9 |
| 20260506211833 | 59 | 333 | 0.0 | 4.0 | 0.00 | 0.10 | 0.08 | 50 | 1017.9 |
| 20260506211551 | 58 | 9 | 0.0 | 4.0 | 0.00 | 0.10 | 0.08 | 51 | 1018.2 |
| 20260506211343 | 59 | 313 | 0.0 | 6.0 | 0.00 | 0.10 | 0.08 | 50 | 1017.9 |
| 20260506210846 | 59 | 34 | 0.0 | 6.0 | 0.00 | 0.10 | 0.08 | 51 | 1017.9 |
| 20260506210315 | 59 | 103 | 0.0 | 1.0 | 0.00 | 0.10 | 0.08 | 49 | 1018.0 |
| 20260506210023 | 59 | 45 | 0.0 | 1.0 | 0.00 | 0.10 | 0.08 | 51 | 1018.3 |
| 20260506205824 | 59 | 105 | 0.0 | 1.0 | 0.00 | 0.10 | 0.08 | 50 | 1018.0 |
| 20260506205326 | 60 | 13 | 0.0 | 0.0 | 0.00 | 0.10 | 0.08 | 51 | 1018.1 |
| 20260506204842 | 60 | 81 | 0.0 | 0.0 | 0.00 | 0.10 | 0.08 | 50 | 1018.2 |
| 20260506204557 | 60 | 34 | 0.0 | 0.0 | 0.00 | 0.10 | 0.08 | 48 | 1018.5 |
| 20260506204349 | 60 | 38 | 0.0 | 1.0 | 0.00 | 0.10 | 0.08 | 48 | 1018.2 |
| 20260506203824 | 60 | 27 | 0.0 | 1.0 | 0.00 | 0.10 | 0.08 | 49 | 1018.3 |
| 20260506203322 | 60 | 65 | 0.0 | 1.0 | 0.00 | 0.10 | 0.08 | 51 | 1018.3 |
| 20260506203042 | 59 | 52 | 0.0 | 1.0 | 0.00 | 0.10 | 0.08 | 50 | 1018.6 |
| 20260506202825 | 60 | 41 | 0.0 | 1.0 | 0.00 | 0.10 | 0.08 | 50 | 1018.3 |
| 20260506202325 | 59 | 316 | 0.0 | 1.0 | 0.00 | 0.10 | 0.08 | 49 | 1018.4 |
| 20260506201822 | 59 | 41 | 0.0 | 0.0 | 0.00 | 0.10 | 0.08 | 51 | 1018.6 |
| 20260506201548 | 58 | 355 | 0.0 | 1.0 | 0.00 | 0.10 | 0.08 | 49 | 1018.9 |
| 20260506201346 | 59 | 337 | 0.0 | 1.0 | 0.00 | 0.10 | 0.08 | 49 | 1018.6 |
| 20260506200821 | 59 | 92 | 0.0 | 2.0 | 0.00 | 0.10 | 0.08 | 50 | 1018.6 |
| 20260506200347 | 59 | 91 | 0.0 | 2.0 | 0.00 | 0.10 | 0.08 | 47 | 1018.7 |
| 20260506200151 | 58 | 143 | 0.0 | 1.0 | 0.00 | 0.10 | 0.08 | 49 | 1019.1 |
| 20260506195847 | 59 | 302 | 0.0 | 1.0 | 0.00 | 0.10 | 0.08 | 47 | 1018.7 |
| 20260506195326 | 59 | 355 | 0.0 | 1.0 | 0.00 | 0.10 | 0.08 | 50 | 1018.8 |
| 20260506194828 | 59 | 360 | 0.0 | 1.0 | 0.00 | 0.10 | 0.08 | 51 | 1018.9 |
| 20260506194516 | 59 | 32 | 0.0 | 1.0 | 0.00 | 0.10 | 0.08 | 51 | 1019.3 |
| 20260506194345 | 59 | 16 | 0.0 | 1.0 | 0.00 | 0.10 | 0.08 | 51 | 1019.0 |
| 20260506193835 | 60 | 109 | 0.0 | 1.0 | 0.00 | 0.10 | 0.08 | 50 | 1019.0 |
| 20260506193355 | 59 | 50 | 0.0 | 1.0 | 0.00 | 0.10 | 0.08 | 53 | 1019.0 |
| 20260506193018 | 59 | 355 | 0.0 | 1.0 | 0.00 | 0.10 | 0.08 | 55 | 1019.4 |
| 20260506192833 | 59 | 331 | 0.0 | 1.0 | 0.00 | 0.10 | 0.08 | 54 | 1019.1 |
| 20260506192319 | 59 | 335 | 0.0 | 2.0 | 0.00 | 0.10 | 0.08 | 54 | 1019.1 |
| 20260506191849 | 58 | 77 | 0.0 | 2.0 | 0.00 | 0.10 | 0.08 | 53 | 1019.1 |
| 20260506191604 | 58 | 328 | 0.0 | 3.0 | 0.00 | 0.10 | 0.08 | 53 | 1019.4 |
| 20260506191353 | 58 | 75 | 0.0 | 3.0 | 0.00 | 0.10 | 0.08 | 54 | 1019.0 |
| 20260506190825 | 58 | 57 | 0.0 | 3.0 | 0.00 | 0.10 | 0.08 | 53 | 1019.1 |
| 20260506190328 | 58 | 340 | 0.0 | 0.0 | 0.00 | 0.10 | 0.08 | 52 | 1019.1 |
| 20260506190052 | 57 | 84 | 0.0 | 0.0 | 0.00 | 0.10 | 0.08 | 52 | 1019.4 |
| 20260506185847 | 58 | 105 | 0.0 | 0.0 | 0.00 | 0.10 | 0.08 | 50 | 1019.1 |
| 20260506185327 | 57 | 28 | 0.0 | 1.0 | 0.00 | 0.10 | 0.08 | 54 | 1019.1 |
| 20260506184844 | 57 | 355 | 0.0 | 1.0 | 0.00 | 0.10 | 0.08 | 54 | 1019.0 |
| 20260506184604 | 57 | 33 | 0.0 | 1.0 | 0.00 | 0.10 | 0.08 | 55 | 1019.4 |
| 20260506184343 | 57 | 28 | 0.0 | 1.0 | 0.00 | 0.10 | 0.08 | 56 | 1019.1 |
| 20260506183851 | 57 | 360 | 0.0 | 1.0 | 0.00 | 0.10 | 0.08 | 57 | 1019.2 |
| 20260506183337 | 57 | 63 | 0.0 | 0.0 | 0.00 | 0.10 | 0.08 | 56 | 1019.2 |
| 20260506183111 | 56 | 102 | 0.0 | 0.0 | 0.00 | 0.10 | 0.08 | 59 | 1019.7 |
| 20260506182824 | 57 | 299 | 0.0 | 0.0 | 0.00 | 0.10 | 0.08 | 58 | 1019.5 |
| 20260506182327 | 56 | 105 | 0.0 | 1.0 | 0.00 | 0.10 | 0.08 | 59 | 1019.5 |
| 20260506181849 | 56 | 346 | 0.0 | 1.0 | 0.00 | 0.10 | 0.08 | 59 | 1019.5 |
| 20260506181509 | 55 | 105 | 0.0 | 1.0 | 0.00 | 0.10 | 0.08 | 64 | 1019.9 |
| 20260506181326 | 56 | 22 | 0.0 | 1.0 | 0.00 | 0.10 | 0.08 | 60 | 1019.6 |
| 20260506180819 | 56 | 82 | 0.0 | 1.0 | 0.00 | 0.10 | 0.08 | 60 | 1019.6 |
| 20260506180333 | 55 | 59 | 0.0 | 3.0 | 0.00 | 0.10 | 0.08 | 62 | 1019.6 |
| 20260506180039 | 55 | 79 | 0.0 | 3.0 | 0.00 | 0.11 | 0.08 | 59 | 1020.0 |
| 20260506175833 | 55 | 71 | 0.0 | 3.0 | 0.00 | 0.11 | 0.08 | 62 | 1019.7 |
| 20260506175325 | 55 | 331 | 0.0 | 0.0 | 0.00 | 0.11 | 0.08 | 63 | 1019.8 |
| 20260506174844 | 54 | 90 | 0.0 | 0.0 | 0.00 | 0.11 | 0.08 | 64 | 1019.9 |
| 20260506174552 | 53 | 90 | 0.0 | 0.0 | 0.00 | 0.11 | 0.08 | 63 | 1020.3 |
| 20260506174344 | 54 | 91 | 0.0 | 0.0 | 0.00 | 0.11 | 0.08 | 62 | 1019.9 |
| 20260506173830 | 53 | 28 | 0.0 | 1.0 | 0.00 | 0.11 | 0.08 | 62 | 1020.1 |
| 20260506173402 | 53 | 57 | 0.0 | 2.0 | 0.00 | 0.11 | 0.08 | 66 | 1020.1 |
| 20260506173124 | 53 | 61 | 0.0 | 2.0 | 0.00 | 0.11 | 0.08 | 65 | 1020.5 |
| 20260506172825 | 53 | 21 | 0.0 | 2.0 | 0.00 | 0.11 | 0.08 | 66 | 1020.1 |
| 20260506172336 | 53 | 355 | 0.0 | 1.0 | 0.00 | 0.11 | 0.08 | 67 | 1020.1 |
| 20260506171857 | 53 | 31 | 0.0 | 3.0 | 0.00 | 0.11 | 0.08 | 69 | 1020.1 |
| 20260506171559 | 52 | 43 | 0.0 | 3.0 | 0.00 | 0.11 | 0.08 | 70 | 1020.4 |
| 20260506171337 | 53 | 288 | 0.0 | 3.0 | 0.00 | 0.11 | 0.08 | 71 | 1020.1 |
| 20260506170827 | 52 | 53 | 0.0 | 0.0 | 0.00 | 0.11 | 0.08 | 76 | 1019.9 |
| 20260506170322 | 52 | 58 | 0.0 | 1.0 | 0.00 | 0.11 | 0.08 | 76 | 1020.0 |
| 20260506170013 | 51 | 42 | 0.0 | 1.0 | 0.00 | 0.11 | 0.08 | 77 | 1020.4 |
| 20260506165841 | 52 | 70 | 0.0 | 1.0 | 0.00 | 0.11 | 0.08 | 78 | 1020.0 |
| 20260506165322 | 51 | 5 | 0.0 | 2.0 | 0.00 | 0.11 | 0.08 | 79 | 1020.0 |
| 20260506164822 | 51 | 31 | 0.0 | 2.0 | 0.00 | 0.11 | 0.08 | 80 | 1020.0 |
| 20260506164536 | 50 | 31 | 0.0 | 1.0 | 0.00 | 0.11 | 0.08 | 82 | 1020.4 |
| 20260506164326 | 51 | 98 | 0.0 | 1.0 | 0.00 | 0.11 | 0.08 | 82 | 1020.0 |
| 20260506163827 | 51 | 360 | 0.0 | 1.0 | 0.00 | 0.11 | 0.08 | 85 | 1019.9 |
| 20260506163342 | 50 | 27 | 0.0 | 1.0 | 0.00 | 0.11 | 0.08 | 85 | 1020.0 |
| 20260506163052 | 49 | 33 | 0.0 | 1.0 | 0.00 | 0.11 | 0.08 | 85 | 1020.4 |
| 20260506162833 | 49 | 5 | 0.0 | 1.0 | 0.00 | 0.11 | 0.08 | 85 | 1020.1 |
| 20260506162327 | 49 | 350 | 0.0 | 1.0 | 0.00 | 0.11 | 0.08 | 86 | 1020.0 |
| 20260506161827 | 49 | 16 | 0.0 | 0.0 | 0.00 | 0.11 | 0.08 | 87 | 1020.2 |
| 20260506161524 | 48 | 355 | 0.0 | 0.0 | 0.00 | 0.11 | 0.08 | 87 | 1020.6 |
| 20260506161322 | 49 | 360 | 0.0 | 0.0 | 0.00 | 0.11 | 0.08 | 88 | 1020.2 |
| 20260506160835 | 48 | 29 | 0.0 | 0.0 | 0.00 | 0.11 | 0.08 | 88 | 1020.2 |
| 20260506160325 | 48 | 55 | 0.0 | 0.0 | 0.00 | 0.11 | 0.08 | 88 | 1020.3 |
| 20260506160105 | 48 | 30 | 0.0 | 0.0 | 0.00 | 0.11 | 0.08 | 88 | 1020.5 |
| 20260506155819 | 48 | 348 | 0.0 | 0.0 | 0.00 | 0.11 | 0.08 | 88 | 1020.2 |
| 20260506155321 | 48 | 360 | 0.0 | 1.0 | 0.00 | 0.11 | 0.08 | 89 | 1020.4 |
| 20260506154838 | 48 | 355 | 0.0 | 1.0 | 0.00 | 0.11 | 0.08 | 90 | 1020.3 |
| 20260506154517 | 48 | 13 | 0.0 | 1.0 | 0.00 | 0.11 | 0.08 | 90 | 1020.6 |
| 20260506154336 | 48 | 14 | 0.0 | 1.0 | 0.00 | 0.11 | 0.08 | 90 | 1020.3 |
| 20260506153835 | 48 | 15 | 0.0 | 0.0 | 0.00 | 0.11 | 0.08 | 90 | 1020.3 |
| 20260506153324 | 48 | 360 | 0.0 | 0.0 | 0.00 | 0.11 | 0.08 | 90 | 1020.3 |
| 20260506153045 | 47 | 5 | 0.0 | 0.0 | 0.00 | 0.11 | 0.08 | 90 | 1020.5 |
| 20260506152845 | 48 | 5 | 0.0 | 0.0 | 0.00 | 0.11 | 0.08 | 90 | 1020.2 |
| 20260506152348 | 48 | 360 | 0.0 | 0.0 | 0.00 | 0.11 | 0.08 | 91 | 1020.1 |
| 20260506151819 | 48 | 5 | 0.0 | 0.0 | 0.00 | 0.11 | 0.08 | 91 | 1019.9 |
| 20260506151600 | 47 | 5 | 0.0 | 0.0 | 0.00 | 0.11 | 0.08 | 91 | 1020.2 |
| 20260506151321 | 48 | 5 | 0.0 | 0.0 | 0.00 | 0.11 | 0.08 | 91 | 1019.9 |
| 20260506150822 | 47 | 36 | 0.0 | 0.0 | 0.00 | 0.11 | 0.08 | 92 | 1019.8 |
| 20260506150322 | 47 | 35 | 0.0 | 0.0 | 0.00 | 0.11 | 0.08 | 92 | 1019.8 |
| 20260506150036 | 47 | 35 | 0.0 | 0.0 | 0.00 | 0.11 | 0.08 | 92 | 1020.3 |
| 20260506145827 | 47 | 35 | 0.0 | 0.0 | 0.00 | 0.11 | 0.08 | 92 | 1019.9 |
| 20260506145327 | 47 | 35 | 0.0 | 0.0 | 0.00 | 0.11 | 0.08 | 92 | 1019.9 |